{"data":{"norad_id":69481,"intl_designator":"2026-131D","name":"STARLINK-37727","alt_names":[],"object_type":"PAYLOAD","status":"ACTIVE","operator":null,"country":"US","launch_date":"2026-06-11","launch_site_code":"AFWTR","launch_vehicle":null,"mission":null,"orbit_class":"UNKNOWN","rcs_meters":null,"size_class":null,"mass_kg":null,"dimensions":null,"purposes":["comms"],"wikipedia_slug":null,"has_3d_model":false,"image_url":null,"decayed_at":null,"tle_current":{"epoch":"2026-09-19T23:23:46.288320Z","epoch_age_seconds":70789,"freshness":"FRESH","line1":"1 69481U 26131D   26262.97484130  .00011623  00000+0  36195-3 0  9994","line2":"2 69481  97.2841 283.7937 0001786  99.5182 260.6263 15.33432142 16815","mean_motion":15.33432142,"eccentricity":0.0001786,"inclination_deg":97.2841,"raan_deg":283.7937,"arg_perigee_deg":99.5182,"mean_anomaly_deg":260.6263,"bstar":0.00036195,"rev_number":1681,"period_min":93.906992070863,"perigee_km":464.35914299528,"apogee_km":466.80371921887,"semimajor_km":6843.7184311071,"source":"CELESTRAK","updated_at":"2026-09-20T09:00:44.205636Z"}}}